Theta_e
291 287 286 285 289 290 290 289 290 291 287 284 284 282 283 283 285 286 288 290 286 285 285 288 289 289 289 290 291 293 293 292 293 293 294 294 293 293 294 294 295 296 297 300 300 299 298 296 296 295 294 295 294 295 295 295 296 296 295 294 293 294 294 294 293 293 293 292 291 290 289 290 290 290 290 289 289 289 289 289 289 289 289 289 289 288
290 285 284 289 291 291 288 287 288 287 285 285 284 282 284 282 284 288 289 291 285 285 282 284 288 288 289 291 292 293 292 291 292 293 294 295 294 294 294 295 296 297 299 298 298 299 295 294 293 293 294 293 293 294 294 295 296 296 296 294 294 294 294 294 294 294 294 293 293 292 291 291 291 290 290 289 289 289 289 289 289 289 289 289 288 288
285 284 288 290 291 287 286 285 284 286 286 284 284 284 282 283 286 288 289 291 287 284 285 286 286 287 289 291 292 292 292 294 295 294 294 295 295 296 296 295 296 297 297 298 297 298 297 294 293 293 293 294 295 295 294 295 295 295 295 295 295 294 294 294 294 294 294 294 294 293 292 292 290 291 291 290 290 290 289 288 288 288 288 288 288 288
283 285 289 291 290 288 287 286 284 284 283 282 283 280 282 286 283 283 283 283 283 286 284 285 286 288 289 291 292 293 294 294 294 294 294 295 295 296 296 297 297 297 297 297 297 298 298 293 293 292 292 293 293 293 293 294 294 295 295 295 294 294 294 294 294 294 294 294 293 291 289 290 290 288 289 288 287 288 288 287 287 288 288 288 288 287
289 287 288 289 287 288 287 287 285 283 286 284 285 284 284 285 286 285 284 283 283 284 283 285 286 288 288 288 288 291 292 292 293 294 294 294 296 297 297 297 296 296 296 297 298 298 297 294 293 292 293 292 292 293 294 294 294 295 295 295 294 294 293 294 294 294 293 292 290 288 287 287 286 286 287 286 285 287 288 288 287 287 287 288 288 287
287 289 287 287 287 286 286 284 285 286 285 285 283 286 287 288 286 284 285 283 280 281 280 282 282 285 284 287 287 289 285 286 288 290 291 293 294 295 293 295 295 295 296 296 297 297 297 296 294 290 290 290 292 293 294 294 295 295 295 294 294 294 293 293 293 293 293 292 291 288 288 286 287 286 286 286 287 286 287 288 288 287 287 287 287 287
287 288 289 288 285 285 284 284 285 287 286 283 283 285 288 287 285 283 283 282 277 276 283 282 279 281 282 283 286 285 285 288 289 289 292 294 294 292 293 294 294 294 295 294 294 295 295 296 292 292 291 291 292 293 294 293 293 294 294 294 294 294 293 293 293 293 293 291 291 290 290 290 289 289 288 289 289 288 289 289 288 288 287 287 287 286
285 285 285 287 285 284 282 282 287 287 285 282 282 283 284 283 283 283 282 283 281 279 282 283 282 279 282 283 287 288 288 288 290 292 292 293 292 293 293 293 294 295 294 295 295 295 295 293 292 294 293 292 293 294 292 293 293 293 293 292 293 293 293 293 293 292 293 292 291 290 290 290 290 290 290 289 289 289 289 288 288 287 286 286 287 286
286 284 284 284 284 282 284 289 285 288 286 282 283 283 284 284 283 282 282 280 279 279 280 280 282 279 279 284 284 285 284 287 288 290 292 293 293 293 294 294 293 294 295 294 295 296 294 292 292 292 293 294 293 292 292 293 293 293 292 292 292 292 292 292 292 292 292 292 291 291 290 290 291 290 289 288 289 289 288 287 286 286 286 286 286 286
285 286 284 287 285 284 285 284 284 288 285 284 283 282 282 281 281 281 279 280 278 276 279 279 282 277 282 288 284 282 283 284 287 290 290 291 292 293 294 293 294 295 295 295 296 294 291 290 291 291 291 291 292 292 292 290 290 291 290 291 291 291 291 291 291 292 292 292 291 290 290 290 290 289 287 287 287 287 286 286 285 286 285 285 285 285
286 288 287 286 285 287 285 284 283 287 286 283 284 285 281 280 278 277 277 278 276 274 280 281 282 283 278 283 283 282 284 285 287 287 288 290 290 292 292 292 294 294 294 294 296 292 289 288 289 287 289 290 288 287 288 289 289 289 290 290 290 290 291 291 291 291 291 291 291 290 290 290 289 289 287 286 286 286 284 286 285 285 285 285 285 285
287 286 287 285 287 285 284 285 283 282 283 286 285 282 281 283 276 275 268 275 274 273 279 281 283 283 277 280 281 281 282 282 285 287 289 288 289 290 292 293 292 292 293 294 292 292 292 291 290 288 289 288 288 286 287 287 288 288 288 289 289 289 290 290 290 291 291 291 291 291 290 290 290 289 288 287 287 286 285 286 285 285 285 284 285 284
282 285 285 288 289 290 286 286 282 283 285 284 281 283 279 272 274 269 271 270 271 276 277 279 281 279 280 286 283 288 290 289 286 287 289 289 289 291 294 294 294 294 294 294 292 291 291 293 293 291 291 288 287 287 286 287 287 287 287 287 288 288 289 289 290 290 290 290 291 291 290 290 290 290 289 288 288 287 286 286 285 284 284 284 283 284
283 281 283 286 288 288 288 285 280 282 283 283 283 279 275 271 269 268 264 264 268 275 276 279 280 279 285 285 286 291 293 291 290 288 288 288 290 292 293 293 294 294 293 293 293 293 291 292 293 293 291 289 288 286 287 286 286 286 287 287 288 288 288 289 289 289 290 290 291 291 290 290 290 290 289 289 288 287 287 287 286 285 285 284 285 284
278 283 282 285 284 286 289 290 289 285 282 285 282 285 281 277 270 267 270 276 278 278 275 275 275 274 275 280 283 287 289 288 287 287 288 287 287 288 290 291 291 291 292 292 293 293 292 292 291 292 292 289 288 287 286 286 286 286 287 287 287 287 287 288 288 289 289 290 290 290 290 290 290 290 290 289 289 288 287 287 287 286 286 286 285 285
283 283 283 285 285 286 288 287 282 281 282 282 281 280 278 280 280 280 280 277 279 276 271 272 277 276 283 284 287 287 287 288 289 289 286 288 288 288 289 291 292 292 292 292 291 292 291 290 290 291 291 290 287 286 285 286 286 287 287 287 287 288 287 288 288 288 289 289 290 289 289 290 290 290 290 289 289 289 288 287 287 287 286 286 286 286
284 279 284 285 286 286 286 284 288 286 279 281 283 280 282 283 284 281 280 280 275 275 278 280 279 282 283 289 293 289 287 287 285 287 288 289 291 289 289 291 291 291 291 291 290 289 290 289 290 290 290 290 288 286 287 287 287 287 287 287 287 287 287 288 288 288 288 289 288 289 289 289 289 289 289 289 289 288 288 287 287 287 287 286 286 286
284 284 287 285 286 287 283 282 284 284 285 283 279 283 285 284 284 282 276 274 277 276 279 285 281 283 281 280 284 284 288 287 284 285 286 286 286 285 290 290 289 290 290 289 288 288 287 287 289 290 290 289 289 289 288 287 287 287 288 287 287 287 287 288 288 288 288 288 288 288 289 289 289 289 289 289 288 288 286 286 286 286 285 285 286 285
288 280 286 284 285 287 286 286 287 286 286 283 282 286 284 279 278 280 275 274 275 275 278 281 283 283 285 285 290 290 291 292 291 286 285 287 287 286 287 288 289 289 291 294 295 294 290 288 289 289 290 290 289 289 288 288 286 286 286 287 288 288 288 288 288 287 288 288 289 289 289 289 289 289 289 288 287 286 286 286 285 285 285 283 284 285
287 282 283 288 287 288 286 287 280 283 286 287 287 285 286 284 283 279 282 278 280 277 278 278 284 280 288 288 290 290 292 293 293 286 286 287 288 288 287 288 288 292 294 295 295 296 297 292 289 289 290 291 292 291 289 287 286 287 288 287 287 287 286 286 286 287 287 288 288 288 288 288 288 289 288 288 287 286 286 286 285 285 284 284 284 284
286 289 279 287 287 289 285 286 285 287 284 284 284 282 284 284 285 284 282 282 281 279 278 278 277 283 288 292 292 292 293 294 294 292 289 290 289 286 285 288 292 293 293 292 293 294 294 292 290 289 290 290 290 289 288 287 287 286 286 286 286 286 286 286 287 286 288 288 288 287 287 288 287 287 287 286 286 286 285 285 285 285 285 283 283 283
286 285 282 285 285 285 287 291 290 290 291 289 287 285 286 283 281 280 278 287 283 281 277 278 276 284 290 295 295 294 295 295 295 291 287 285 284 285 290 294 293 292 291 291 291 289 289 289 289 289 290 289 288 288 288 288 286 286 285 285 285 285 284 285 286 287 287 287 288 287 288 287 287 286 286 285 285 286 286 285 285 285 284 284 284 283
292 286 285 283 285 286 289 293 293 292 291 288 288 285 288 284 284 280 277 281 285 283 284 282 279 281 293 293 296 296 296 295 295 290 289 287 286 287 290 289 288 288 288 288 287 288 287 287 287 287 287 287 287 287 287 287 286 286 286 285 284 283 284 285 285 285 286 286 286 287 287 286 286 285 285 286 286 286 286 286 285 284 284 284 283 283
293 284 281 284 288 290 291 290 288 287 287 285 285 284 285 285 286 284 283 284 281 281 280 280 278 282 293 294 294 295 294 293 294 291 290 291 290 289 288 288 287 286 286 285 285 285 286 285 285 286 286 286 287 287 287 288 289 288 287 286 286 286 285 283 283 285 285 285 286 285 285 285 285 285 285 285 286 286 286 286 285 284 284 284 283 283
284 282 285 281 280 282 282 284 284 284 285 282 284 287 287 287 286 286 285 281 280 281 282 279 274 281 287 289 290 290 291 292 291 291 288 288 287 287 286 286 286 285 284 284 284 284 285 285 285 285 285 286 286 287 287 288 288 288 288 288 287 287 286 286 285 285 285 284 284 284 284 284 284 285 285 285 286 286 286 286 286 285 284 284 283 283
285 284 284 278 275 274 273 274 276 278 281 283 283 286 286 285 284 281 279 281 278 281 283 280 279 286 290 289 289 289 289 290 293 289 285 285 285 284 284 284 284 284 284 284 284 284 284 284 285 285 285 285 285 286 286 287 287 287 288 288 288 288 286 286 285 285 285 284 284 284 283 284 284 285 285 286 286 286 286 286 285 285 284 284 284 283
281 282 285 284 282 280 282 284 285 286 283 281 281 282 284 286 287 285 285 282 279 282 281 282 284 284 287 289 289 290 291 290 285 282 282 282 282 283 282 282 283 282 283 282 283 283 284 284 284 285 285 285 285 285 286 286 286 287 287 287 288 288 287 287 286 285 284 284 283 283 284 284 284 285 286 286 286 286 286 285 285 285 284 284 283 283
280 281 284 285 284 285 286 286 287 287 284 285 284 284 286 284 284 282 281 280 286 282 277 285 286 284 285 288 289 286 284 286 282 282 281 282 281 281 281 281 283 282 282 282 282 282 282 282 283 283 284 284 285 285 285 286 286 286 286 286 287 288 288 288 287 286 285 284 284 283 284 284 285 285 285 285 285 285 285 285 285 285 284 283 283 283
281 280 284 285 284 287 286 285 286 285 285 285 285 285 284 286 285 283 283 285 285 281 278 284 286 284 286 288 284 280 281 282 281 281 281 281 281 281 281 280 280 280 280 281 281 281 281 281 282 282 283 283 284 284 284 285 286 286 286 286 286 287 287 287 287 287 286 284 283 284 285 285 284 284 284 284 284 284 284 284 284 284 284 283 283 283
284 280 284 283 282 282 282 284 285 284 283 284 284 285 286 285 284 285 285 286 286 284 286 286 286 285 288 277 281 280 281 282 281 281 281 281 280 280 280 280 279 280 280 280 280 281 281 281 281 282 282 282 282 283 283 284 285 285 284 285 285 286 286 286 286 286 286 286 286 286 285 284 284 284 284 283 283 284 284 284 283 283 283 283 282 282
285 279 285 281 279 279 281 283 283 283 283 281 284 285 285 285 284 284 284 284 285 284 285 285 284 284 282 279 280 281 281 281 282 279 279 280 280 279 279 279 279 279 280 280 280 280 280 281 281 282 282 282 282 282 283 283 284 284 284 284 285 286 286 285 286 285 285 285 286 286 285 285 285 284 283 283 283 283 283 283 283 282 282 282 281 281
284 278 282 280 276 275 280 280 280 281 281 280 280 281 281 281 279 281 281 283 283 282 284 283 281 282 278 280 279 280 280 279 279 280 279 280 279 279 278 278 279 279 279 280 280 280 280 281 281 281 282 282 282 282 282 283 283 284 284 284 284 285 285 285 285 285 285 285 285 285 285 285 284 284 284 283 282 282 282 282 281 281 281 280 280 280
277 277 276 276 273 273 279 280 279 279 277 274 275 278 280 280 282 283 285 285 282 281 279 279 280 276 277 279 277 278 279 279 279 280 279 280 280 280 279 279 279 280 280 281 281 281 282 282 282 282 283 283 283 283 283 283 283 283 283 283 284 285 284 284 284 285 285 285 284 284 284 284 283 283 283 283 282 281 280 280 281 280 279 279 280 280
277 276 274 276 272 272 276 276 277 274 267 269 281 282 283 281 280 278 278 276 278 280 277 278 277 279 278 278 277 277 278 278 279 280 282 280 280 280 281 281 281 281 281 281 282 282 282 283 283 283 283 283 284 284 284 284 284 284 284 283 283 283 283 283 283 284 284 284 284 284 283 283 283 282 282 281 281 280 279 279 281 281 281 279 279 280
276 276 273 272 271 270 273 272 270 265 267 276 278 279 279 278 279 279 277 277 277 279 278 277 278 277 279 278 279 279 279 280 281 280 281 281 281 281 280 281 281 282 282 282 282 282 282 282 283 283 283 283 284 284 284 284 284 284 284 284 284 284 283 282 282 283 283 283 283 283 283 282 281 281 281 281 280 279 279 279 280 280 280 280 280 279
275 274 270 269 270 269 267 266 263 263 274 276 278 275 277 275 273 275 274 275 275 278 278 275 279 278 279 279 280 281 280 280 280 281 281 281 282 281 281 281 282 282 282 282 282 282 282 282 282 282 282 284 283 283 283 283 284 284 283 284 283 284 283 283 282 282 282 282 282 282 282 281 281 281 281 280 279 279 280 280 280 280 279 278 278 279
279 277 274 271 276 266 266 267 267 273 273 275 275 276 274 272 272 272 269 276 273 273 276 275 277 278 279 279 280 280 280 280 278 279 281 281 282 281 282 283 283 283 283 283 283 282 283 282 282 282 283 283 282 282 282 283 283 283 283 283 283 283 283 283 283 282 282 281 281 281 280 280 280 279 279 279 278 279 279 279 279 279 278 278 278 278
280 276 277 273 271 276 269 268 269 267 264 269 273 274 277 277 277 278 277 272 275 273 278 278 277 279 278 278 279 280 280 276 273 277 280 281 282 282 283 283 284 283 283 283 283 283 282 282 282 282 282 282 282 282 282 282 283 282 282 282 282 282 282 282 282 283 283 282 281 280 280 279 279 279 278 277 277 277 278 277 277 278 277 277 277 277
278 280 277 274 272 274 270 268 267 266 268 274 272 276 277 279 281 280 275 268 277 273 276 279 277 279 278 278 278 279 276 271 271 275 279 280 281 281 282 283 283 283 283 283 282 282 282 282 282 282 282 281 281 281 281 282 282 281 281 281 281 281 281 281 282 282 282 283 282 281 280 279 279 279 278 278 278 276 276 276 276 274 273 274 275 276
266 269 274 273 273 273 272 269 266 270 265 270 270 273 275 274 277 276 267 269 274 272 276 279 277 277 278 278 278 277 275 270 272 276 279 279 280 281 282 282 282 282 282 282 282 282 282 282 281 281 280 280 280 281 281 281 281 280 280 280 281 280 280 281 281 282 283 283 282 282 281 281 279 279 279 278 279 278 276 275 273 272 272 272 274 273
264 266 267 268 270 271 272 269 271 271 275 272 272 273 275 275 274 266 264 271 273 272 276 278 276 276 277 276 276 274 277 278 278 279 279 279 280 281 282 283 283 282 281 281 281 283 281 280 280 280 280 280 280 280 280 280 280 279 279 280 280 279 280 281 282 282 283 283 282 282 282 281 280 280 279 278 278 278 276 274 274 273 272 272 271 271
262 263 265 266 265 266 267 266 267 269 272 274 275 276 276 273 263 265 271 272 271 272 274 278 278 279 279 278 278 278 278 279 279 278 278 278 278 279 280 281 282 281 281 281 281 281 280 279 279 279 279 279 279 279 279 279 278 278 278 279 278 279 280 281 281 282 282 281 281 281 281 281 281 280 279 278 277 277 277 276 274 274 273 272 270 269
266 267 265 268 266 266 266 266 265 262 269 271 273 274 274 268 269 274 275 276 274 274 274 275 277 278 279 278 279 279 279 278 278 278 278 278 278 278 278 278 278 277 277 277 278 278 278 278 278 278 278 278 278 278 278 278 277 277 278 277 278 279 279 280 280 280 280 279 279 280 280 280 280 279 278 278 277 276 277 276 274 273 273 273 272 272
274 269 267 267 268 265 264 263 262 265 271 272 273 270 268 275 275 276 275 275 277 275 274 275 276 278 278 278 278 278 278 278 278 278 277 277 277 277 277 277 276 276 276 276 275 275 274 275 276 276 276 276 277 277 277 277 276 276 276 277 278 278 279 279 279 278 278 278 278 278 279 279 280 279 278 277 276 276 276 275 274 273 273 273 273 272
272 271 272 268 269 268 261 267 271 270 273 273 274 275 276 278 279 278 277 276 276 275 275 274 276 277 278 278 279 278 278 278 277 278 277 277 277 276 276 276 276 275 275 275 275 274 272 274 274 274 273 274 274 275 275 275 275 275 275 276 277 277 277 277 277 276 276 276 276 277 277 278 279 279 277 276 276 275 275 275 273 272 273 272 272 272
273 272 270 271 271 275 275 276 277 275 275 277 279 279 278 279 279 277 276 275 275 276 276 276 276 277 278 278 277 277 277 278 278 277 276 276 275 275 275 274 274 274 273 273 273 273 272 271 271 271 271 272 272 272 273 273 274 273 274 275 275 276 276 275 274 274 273 274 274 275 276 276 277 278 278 276 276 275 276 275 274 273 273 272 272 272
274 275 272 271 273 270 266 275 274 275 276 277 277 278 278 277 277 277 274 275 275 276 277 277 277 277 278 278 277 277 277 278 276 276 275 274 274 274 273 273 273 272 272 271 272 272 271 269 270 270 270 270 271 271 271 271 272 272 273 273 273 274 274 273 272 272 272 272 273 273 274 275 276 277 278 276 275 275 275 275 274 274 273 272 272 272
270 276 272 272 272 270 270 274 276 276 276 277 277 277 277 278 278 277 276 276 276 277 276 277 276 276 276 276 277 276 276 276 274 273 272 272 272 272 272 272 271 271 271 271 271 270 268 268 268 269 269 269 271 271 271 270 271 271 271 271 272 271 270 270 270 270 270 270 270 271 273 274 274 275 276 276 276 275 274 274 274 274 273 273 273 272
272 273 262 268 270 273 275 276 276 276 276 277 277 277 278 278 278 277 277 276 275 274 275 276 276 275 273 273 271 271 269 271 271 270 270 270 270 270 270 270 271 270 270 270 270 269 268 268 268 268 268 268 270 270 269 269 270 270 270 270 269 267 268 268 269 269 268 268 269 270 272 273 273 274 275 275 276 275 275 275 275 274 274 276 276 275
270 270 274 272 268 269 270 272 275 269 269 274 276 276 276 274 274 274 274 273 272 271 271 270 271 271 271 270 270 269 267 269 269 269 268 269 269 269 269 269 269 269 269 269 269 268 268 268 267 267 267 268 269 269 268 268 269 269 269 268 266 265 266 267 267 266 266 267 268 269 270 270 271 272 272 273 274 275 275 276 279 278 276 275 278 279
273 273 273 270 270 269 274 275 276 276 275 276 277 278 275 272 272 272 270 269 269 269 269 268 267 268 268 269 270 268 267 268 268 269 267 268 268 269 269 268 268 268 268 268 267 267 267 267 267 267 267 267 268 267 267 267 268 268 268 267 265 265 265 265 265 265 266 266 267 268 268 268 268 269 270 271 272 273 273 274 275 279 280 280 279 279
Wind_Speed
2 7 8 9 14 16 12 12 17 15 3 2 2 4 10 10 10 8 10 14 1 4 8 16 18 16 16 14 15 16 13 11 19 23 19 14 12 11 13 15 18 19 21 20 14 12 9 8 8 7 7 9 8 10 10 12 14 14 16 14 16 15 14 13 13 12 13 13 11 8 11 14 12 12 11 10 10 11 11 11 11 11 10 10 10 10
2 7 8 15 19 12 6 7 6 6 5 6 6 6 12 5 15 12 14 10 1 1 3 7 17 19 18 16 17 16 15 19 17 22 23 20 14 13 14 17 19 20 15 13 14 15 6 5 6 7 8 7 9 12 12 16 18 17 16 16 16 10 13 14 15 14 14 15 16 18 18 17 14 13 13 13 11 13 11 11 11 11 10 11 11 10
5 10 15 19 9 2 1 3 4 7 8 7 8 8 9 9 13 13 13 13 6 1 10 10 16 15 14 15 15 16 20 19 15 14 16 18 22 18 15 17 19 17 18 14 12 13 9 6 7 8 9 10 14 12 15 17 13 13 14 16 13 13 15 15 15 14 15 14 12 12 9 11 8 8 9 9 10 9 10 11 11 10 10 11 10 11
5 6 19 14 2 4 4 1 1 0 2 5 7 5 12 7 5 9 2 2 1 1 8 10 21 19 13 17 21 22 21 16 11 10 13 16 20 23 22 18 15 15 15 16 14 13 11 5 7 7 8 10 8 8 9 11 14 12 14 14 15 14 15 14 15 16 13 11 8 5 2 5 6 6 4 5 5 8 8 10 10 11 11 12 12 11
16 5 5 6 6 6 8 6 4 5 12 7 12 9 9 10 13 10 5 6 6 5 4 11 15 15 11 12 7 13 7 10 16 13 14 18 19 21 21 18 11 13 14 16 19 17 13 7 8 9 9 5 9 10 12 12 13 12 17 16 15 14 15 14 14 14 10 8 7 6 5 5 5 4 6 5 6 9 9 8 11 12 10 12 12 12
11 6 3 5 6 6 6 7 8 8 13 8 5 10 18 15 10 7 8 7 5 7 4 5 12 14 3 8 9 7 2 4 6 8 16 21 21 18 7 20 11 7 10 14 17 18 16 11 7 4 4 5 8 10 12 9 12 11 11 12 13 11 12 13 14 15 13 13 13 12 11 10 10 10 10 15 17 12 13 16 11 10 14 13 13 12
6 2 6 6 5 6 6 7 7 9 14 6 8 14 16 10 7 6 11 4 5 2 2 2 3 21 4 3 6 6 4 8 8 10 18 19 15 6 9 10 10 11 11 7 9 14 15 13 5 5 5 7 10 12 8 7 9 11 11 11 14 14 12 13 13 16 13 13 13 17 18 16 17 17 15 12 9 12 12 9 11 12 10 11 13 12
2 2 5 3 4 4 4 5 10 12 6 9 3 6 6 5 7 7 4 6 8 1 4 2 5 6 23 2 10 10 8 10 13 16 17 13 11 12 10 9 10 11 9 9 12 13 10 5 5 7 8 8 13 11 7 9 9 12 12 11 13 11 11 12 13 16 16 16 16 16 15 14 14 15 14 12 12 12 11 11 11 10 10 11 11 12
6 2 4 3 3 4 8 14 2 11 7 6 1 6 5 7 6 3 5 5 3 4 9 3 3 4 10 4 3 4 2 9 14 17 17 11 11 11 14 10 7 10 11 9 12 14 5 5 6 7 8 10 9 8 9 10 10 9 9 10 10 13 12 12 15 16 16 15 16 16 15 15 13 12 8 7 7 9 8 10 8 9 9 9 10 10
2 1 7 8 7 9 8 2 9 10 6 4 3 5 5 5 4 3 4 3 2 2 12 7 6 4 17 14 4 3 2 6 12 13 8 8 9 13 13 12 12 11 9 8 11 6 4 4 6 6 6 7 8 6 6 5 4 5 7 10 11 13 11 11 14 15 16 15 13 14 15 17 13 9 6 8 9 9 8 11 10 10 9 10 9 10
3 2 5 5 8 6 4 1 3 6 2 3 3 2 3 5 3 3 5 2 2 3 12 13 10 7 10 5 7 5 5 5 4 8 8 3 4 9 8 9 11 10 7 8 11 5 4 5 6 5 6 7 6 4 4 5 5 5 7 9 11 12 10 11 14 15 17 15 15 16 17 17 15 13 11 10 11 10 9 12 12 11 10 9 11 10
2 0 2 4 3 3 3 2 2 1 1 1 0 1 3 4 5 2 3 2 3 8 5 10 14 11 9 3 2 4 3 4 5 6 13 8 6 9 7 7 7 8 10 9 4 7 10 9 6 5 6 6 6 4 2 2 2 4 5 6 9 8 10 10 12 14 15 15 16 15 16 17 17 16 14 16 16 16 17 15 14 11 9 10 10 10
4 9 3 1 3 10 3 1 3 2 1 4 2 0 3 5 6 3 2 1 5 10 3 4 5 3 16 15 3 11 12 11 9 8 7 7 9 10 11 11 10 11 10 10 8 6 6 8 11 7 8 6 5 4 3 2 3 3 4 6 9 11 10 11 12 14 15 15 17 17 16 15 13 15 16 16 15 14 15 14 13 13 14 11 11 13
8 1 1 5 1 4 8 8 1 3 6 7 7 5 5 2 3 5 4 2 5 6 3 5 1 8 11 9 7 13 16 8 5 7 8 8 10 12 12 10 12 12 10 9 10 8 6 7 10 9 7 7 5 4 4 4 4 5 5 6 9 9 9 11 13 14 15 17 16 14 14 14 13 14 14 13 13 12 12 12 14 15 15 15 18 16
7 11 5 6 4 4 9 14 14 6 8 12 3 12 10 9 6 4 4 9 9 6 1 3 3 8 0 5 0 7 7 8 7 4 6 6 7 8 8 10 12 12 10 6 8 7 9 9 8 9 8 6 5 5 4 4 4 4 6 7 9 8 7 8 11 12 16 16 15 13 13 12 12 14 13 13 12 12 13 12 13 13 12 14 15 16
9 9 4 3 2 1 10 2 4 4 2 3 3 3 2 8 4 8 4 3 5 3 2 2 8 4 8 4 6 8 9 11 9 9 4 7 6 6 7 9 11 10 8 8 6 7 7 6 8 8 7 5 5 5 4 5 5 6 7 7 9 10 10 11 11 13 13 12 10 11 13 14 13 11 11 10 11 13 14 15 16 16 15 14 12 11
1 4 1 5 2 0 2 4 1 2 6 1 5 5 7 2 4 4 4 1 2 1 12 3 8 9 6 11 14 10 7 9 5 7 7 10 11 6 7 11 10 8 8 8 6 5 6 6 6 6 6 7 5 5 6 7 7 8 7 7 8 8 7 11 12 11 8 9 9 13 13 12 13 14 15 15 13 11 9 9 10 11 12 9 10 11
4 7 2 4 3 2 1 0 4 3 2 6 1 7 1 2 3 2 5 3 3 10 9 7 16 13 5 12 2 3 8 8 5 7 8 6 6 6 9 7 6 7 7 8 6 4 6 5 6 6 5 5 6 7 7 8 6 6 7 8 9 9 11 9 9 10 10 11 12 11 13 14 15 14 14 11 10 8 7 7 8 7 8 13 10 9
1 4 1 1 4 6 2 1 5 1 1 2 2 2 1 5 4 2 3 5 8 12 7 7 11 14 10 16 14 19 19 18 11 5 6 7 7 7 6 7 7 7 7 11 13 10 3 3 5 6 7 8 6 7 8 8 4 5 6 7 8 11 10 7 6 5 6 7 8 8 10 11 11 11 11 9 6 6 10 10 10 10 9 5 7 9
2 4 3 0 1 1 4 2 3 1 2 0 0 2 0 1 4 3 6 2 1 11 7 12 11 12 5 10 13 17 20 22 20 2 6 8 9 6 5 5 7 8 9 11 12 12 15 11 9 7 8 10 11 9 8 7 6 7 7 6 6 5 3 5 6 7 9 8 8 10 7 8 9 9 9 8 9 9 10 10 9 9 8 10 6 7
2 1 7 1 1 4 9 4 9 8 8 4 2 4 1 3 2 1 3 4 6 8 10 9 12 6 7 5 12 17 21 23 22 15 6 7 7 4 5 6 9 12 10 9 9 12 13 12 11 10 11 11 9 9 9 7 7 7 7 7 6 5 5 5 6 6 10 10 12 10 12 11 9 10 7 6 7 9 8 8 10 11 10 6 10 10
2 1 8 5 10 9 13 9 10 12 15 14 10 11 11 7 6 9 13 5 6 8 10 8 16 5 7 8 13 17 18 18 18 13 5 3 4 5 9 10 8 8 9 10 11 11 13 11 11 11 11 10 9 10 12 12 8 7 7 7 6 5 4 5 6 7 5 5 7 9 11 10 8 9 8 8 9 10 10 10 11 10 7 12 10 11
6 3 5 13 12 16 18 20 13 15 11 7 7 6 8 5 3 5 14 11 8 8 5 14 14 14 7 10 13 15 15 14 14 6 8 5 4 5 7 6 8 9 10 12 13 12 12 12 12 8 7 9 10 8 7 7 7 8 8 7 5 4 6 5 6 5 5 7 8 10 8 6 7 5 8 12 12 13 13 12 9 7 10 10 8 8
6 2 3 12 10 12 11 8 4 4 3 4 5 4 4 10 11 12 11 7 9 9 11 13 15 6 3 8 10 10 8 8 9 6 5 7 7 9 10 11 13 14 14 13 12 11 9 8 10 16 19 17 13 12 12 10 10 9 8 7 7 8 7 4 5 6 6 7 9 7 5 7 5 6 8 10 12 14 13 11 9 8 10 10 9 11
3 4 6 9 5 8 5 5 3 2 2 3 6 8 9 10 10 11 9 1 12 13 16 16 20 9 2 4 4 6 6 9 10 9 11 12 13 13 14 13 12 12 13 15 15 14 16 18 19 16 14 15 16 14 13 13 13 12 13 11 11 9 9 8 6 6 7 7 9 7 7 6 6 8 9 11 10 13 11 11 11 9 12 10 12 12
4 2 6 9 10 12 12 13 11 6 6 3 0 6 7 7 10 5 9 8 15 9 16 17 15 12 9 3 4 5 5 8 9 15 14 11 11 12 12 12 12 12 13 14 15 17 17 13 14 17 17 16 15 15 17 17 16 15 14 14 11 10 7 7 7 7 7 7 9 8 7 8 8 11 13 14 13 14 11 9 8 8 8 9 12 10
1 1 6 10 12 14 12 11 5 6 7 8 5 4 9 9 13 12 12 13 16 14 16 15 16 19 15 12 10 8 11 13 13 13 13 12 11 10 9 9 9 10 11 12 12 12 14 18 18 16 16 15 15 15 14 14 15 15 14 15 14 13 11 10 6 5 6 7 7 6 6 7 10 11 11 12 13 11 9 11 11 11 13 11 11 11
1 2 5 11 14 15 15 17 15 12 16 13 15 16 13 13 9 11 10 14 10 13 17 7 16 16 15 14 12 13 12 9 7 7 8 10 10 10 9 9 12 14 14 13 14 16 15 14 15 16 16 17 16 16 15 13 13 13 13 14 13 13 13 12 13 10 7 6 6 6 7 8 8 9 10 9 8 9 9 9 9 11 10 8 11 13
0 4 4 11 15 9 8 11 10 11 9 11 12 12 14 15 16 18 20 17 14 12 16 10 13 15 12 9 10 7 10 7 6 9 9 6 6 8 10 12 12 12 12 13 13 13 13 14 13 14 14 14 15 16 16 15 15 15 15 14 14 13 14 13 13 13 12 9 7 8 8 7 6 7 8 8 8 8 9 9 9 9 9 10 11 10
2 6 6 7 9 8 11 12 11 12 13 13 13 13 12 14 17 18 18 16 17 19 19 19 19 21 10 4 4 7 7 6 5 5 5 8 9 8 8 9 9 10 10 10 11 11 10 10 10 11 12 14 14 15 15 14 15 15 14 15 14 15 15 14 14 14 14 13 13 10 7 6 6 7 7 7 9 10 9 9 9 9 10 10 10 9
5 6 10 9 11 12 14 13 11 11 11 14 12 13 13 15 17 16 15 17 19 18 15 18 16 13 7 3 6 4 6 3 2 6 8 6 8 9 10 11 10 10 10 9 9 9 9 10 11 11 13 13 13 14 13 12 12 12 13 14 13 13 13 12 12 13 13 14 13 13 12 11 9 6 6 7 7 7 7 9 8 8 9 9 9 11
3 4 4 7 10 11 10 14 13 12 13 13 15 17 19 20 20 16 16 12 13 16 14 13 12 9 4 4 3 4 7 9 8 6 6 6 6 5 6 8 6 9 9 9 9 8 10 11 13 13 13 13 13 13 12 12 12 13 14 14 14 13 12 12 12 12 12 12 12 12 13 11 11 11 10 7 7 7 6 5 6 7 8 8 8 9
3 4 5 7 11 10 12 12 12 12 13 16 16 18 16 15 16 19 18 12 5 4 6 11 8 4 5 5 5 6 7 8 7 7 7 7 6 5 7 8 5 6 6 8 9 10 11 11 11 12 12 12 12 13 12 11 11 12 13 13 13 12 12 12 11 11 12 12 11 12 11 11 11 10 10 9 7 5 5 5 5 6 6 9 9 6
4 5 7 3 9 11 15 15 8 9 13 13 8 2 4 10 4 6 4 4 5 3 2 4 2 2 3 4 4 5 5 5 6 7 3 1 4 6 6 6 5 5 5 5 6 8 9 9 10 9 9 9 10 11 10 9 10 10 10 11 10 11 11 11 11 10 10 11 11 11 11 10 10 10 10 9 8 6 5 4 7 7 6 5 5 8
12 9 10 4 7 11 10 9 11 14 14 3 3 2 5 4 3 2 3 3 4 3 5 3 2 1 3 3 5 5 5 5 6 7 6 3 1 6 8 7 7 6 8 7 8 8 8 10 10 11 11 10 10 9 9 10 10 10 10 10 10 10 10 9 9 10 11 11 11 11 11 10 10 10 10 8 7 6 5 6 6 6 6 6 9 10
10 11 4 3 4 3 2 4 7 8 3 3 3 2 1 4 3 7 3 2 2 3 3 1 4 4 4 5 5 6 4 8 6 10 6 2 1 3 6 7 6 5 6 7 7 9 8 8 9 10 10 9 10 10 9 9 10 11 11 9 8 9 8 8 8 10 11 12 12 11 11 11 11 10 9 8 6 5 6 6 6 7 6 5 6 6
11 6 4 7 5 8 5 8 13 7 15 11 7 1 2 1 1 1 3 1 4 4 3 2 4 5 5 6 6 6 6 5 6 6 4 1 2 3 4 6 6 6 6 6 6 7 7 6 7 8 8 9 9 10 10 10 10 10 11 11 10 10 9 9 9 10 10 11 12 12 11 10 10 10 9 8 6 6 6 6 7 6 4 6 7 6
9 11 6 8 5 8 7 8 8 6 10 2 3 6 2 5 3 3 1 3 5 4 6 8 6 7 7 6 7 6 4 5 9 2 2 2 4 5 5 5 6 6 6 6 6 5 5 6 5 6 6 8 9 9 9 10 10 11 11 11 11 11 11 10 10 11 11 11 10 10 10 10 9 9 9 8 7 7 6 5 4 5 4 6 6 7
4 8 9 9 7 6 7 9 9 10 7 5 9 6 6 3 2 3 3 6 4 3 6 8 9 8 7 6 8 3 1 4 8 7 4 4 6 5 6 6 6 7 6 6 7 8 7 6 6 6 6 7 9 9 8 10 10 10 10 11 11 10 10 10 11 12 12 12 11 10 9 9 9 9 9 9 9 7 7 6 5 3 2 4 4 5
4 3 6 10 11 7 8 10 11 4 3 4 5 4 7 1 2 1 8 4 4 6 7 8 8 8 7 8 5 3 5 6 8 8 4 4 4 5 5 8 8 7 7 6 6 7 7 6 5 6 7 8 8 7 8 8 8 8 9 9 9 10 10 10 10 11 10 10 11 10 10 9 9 9 9 10 9 8 6 5 3 4 3 4 4 5
2 4 4 8 8 11 14 11 7 6 1 2 6 6 5 3 2 7 15 4 3 3 6 8 8 8 7 7 7 6 10 11 10 9 8 5 4 6 6 6 9 7 8 7 8 7 6 5 5 7 8 7 8 7 7 7 7 9 9 9 9 9 10 10 10 10 10 10 11 12 12 10 9 10 10 8 8 7 6 3 3 3 3 4 3 3
3 2 5 4 9 10 9 11 11 6 4 5 5 4 2 2 4 12 1 2 1 4 5 9 9 9 8 10 9 10 11 11 10 7 7 8 7 6 7 7 7 7 6 6 8 6 5 5 6 7 8 7 7 7 7 7 8 9 9 9 10 9 9 9 10 10 10 11 11 12 12 12 11 9 8 8 7 7 7 4 2 3 3 3 3 4
4 2 4 5 3 0 1 6 5 8 2 5 1 5 1 3 6 3 6 8 3 5 5 5 6 8 8 10 11 12 12 10 10 11 10 9 8 8 8 7 7 7 7 7 7 6 5 7 8 8 8 7 6 7 7 7 10 10 10 11 12 10 9 10 9 10 10 11 12 12 12 12 11 11 8 8 7 7 8 5 4 3 2 2 3 4
2 8 4 6 4 9 6 8 6 3 1 3 1 8 2 5 3 5 5 13 9 5 5 6 5 7 9 10 12 11 11 12 11 10 9 9 9 8 7 7 7 7 7 6 6 7 5 7 8 9 7 7 7 7 7 7 9 10 11 14 11 10 10 10 10 10 11 11 11 12 12 11 11 9 8 8 7 6 7 7 5 4 3 3 4 5
5 9 8 11 4 6 5 6 7 4 1 3 4 5 8 11 12 11 9 10 11 7 5 4 8 9 9 11 12 12 12 11 12 11 9 9 8 7 8 8 8 8 8 8 9 7 5 7 10 9 9 9 8 8 7 7 9 12 13 12 9 10 11 11 11 12 13 13 13 12 11 11 11 10 7 7 6 7 7 7 4 5 4 4 4 5
5 5 1 3 9 7 8 10 13 6 6 13 12 12 13 15 13 9 7 8 6 8 5 8 8 10 10 9 9 10 11 12 12 10 9 7 7 7 7 7 8 7 7 8 9 8 6 6 6 8 11 12 10 9 7 7 7 11 13 10 9 10 10 10 11 12 14 14 13 13 13 14 13 11 8 7 6 8 7 7 6 6 5 5 6 6
9 9 5 8 11 10 12 12 9 10 13 12 12 13 12 8 10 10 4 6 8 8 10 9 9 9 10 9 9 12 13 12 10 9 7 5 7 8 9 10 9 8 8 10 11 8 7 6 8 10 11 13 13 9 7 8 8 9 10 11 9 9 10 10 11 13 13 13 13 13 13 13 11 10 9 7 6 7 7 7 6 7 7 6 7 7
9 7 9 12 14 11 17 16 13 10 11 13 12 12 14 15 14 9 7 7 8 9 8 10 8 8 5 8 8 8 9 7 6 6 6 6 8 9 10 10 10 11 11 9 9 7 6 8 9 11 11 13 15 11 10 9 10 10 10 10 9 7 8 11 12 13 15 16 13 12 12 12 13 13 10 9 7 8 7 7 8 8 9 9 9 9
5 3 3 4 6 13 16 15 14 14 14 15 15 13 12 12 12 11 9 8 6 7 8 8 4 4 3 3 6 3 5 8 5 5 6 8 10 10 11 11 11 11 12 13 11 7 9 8 10 11 12 15 14 12 12 12 12 11 11 10 6 5 8 12 13 13 15 16 14 14 12 10 11 11 10 11 9 9 9 9 9 10 11 11 9 10
1 11 13 7 11 14 14 14 9 9 10 10 9 8 6 2 3 6 6 5 4 5 6 8 9 4 3 4 4 5 4 7 9 6 7 9 11 12 12 12 12 12 14 13 10 10 10 10 10 12 14 15 13 12 13 13 13 13 11 8 4 5 8 12 14 15 16 14 13 12 12 11 10 11 11 11 11 11 10 12 17 13 11 11 13 20
10 13 7 9 12 15 16 13 7 9 11 10 11 10 4 6 4 4 4 5 5 5 6 7 9 11 8 5 3 5 5 7 11 9 10 11 12 12 12 13 14 14 15 14 13 14 13 13 12 12 15 16 13 13 13 13 14 15 14 8 5 6 10 12 13 14 15 14 13 12 12 11 12 11 11 11 12 11 11 11 10 18 24 21 16 15
Wind_Direction
132 164 170 192 220 222 222 191 213 230 272 344 240 241 255 264 277 267 270 263 96 304 234 263 268 268 268 268 267 267 269 255 271 277 274 267 261 255 254 254 257 258 257 263 267 264 248 231 225 219 207 214 208 209 198 198 203 199 197 188 201 195 184 183 180 182 180 181 185 187 197 206 197 193 192 193 194 193 198 190 189 183 184 180 177 177
93 195 215 215 222 226 220 215 243 284 292 254 273 271 267 233 273 252 268 279 65 240 265 246 275 274 273 274 271 269 269 261 247 267 277 278 268 256 254 259 258 258 268 270 275 270 264 239 222 213 210 195 201 214 196 203 203 200 197 195 203 178 189 191 189 186 188 192 188 187 196 197 190 186 188 199 195 199 193 188 187 185 184 181 181 176
198 202 221 227 224 69 109 156 183 205 239 251 242 262 285 260 260 272 265 276 282 162 273 270 268 266 269 267 269 259 255 256 248 243 263 281 282 273 259 253 259 266 267 274 269 275 266 230 222 211 211 210 210 206 200 208 201 198 196 204 194 189 188 193 190 185 196 194 195 195 198 192 191 204 207 203 197 187 187 187 186 184 184 180 180 180
261 247 237 236 213 265 267 163 129 115 218 220 251 263 249 262 282 297 246 3 322 221 299 287 288 283 265 257 251 254 256 261 275 253 250 249 262 267 264 254 257 262 276 280 277 273 273 222 230 216 220 219 214 216 212 209 203 199 203 203 194 193 192 191 193 195 196 189 186 182 113 164 163 181 172 170 160 183 175 187 185 192 185 181 185 178
223 225 238 210 205 205 236 239 228 252 261 198 223 240 269 254 242 236 273 335 316 288 261 299 290 277 212 246 254 267 270 267 261 267 261 257 251 252 261 273 251 268 273 281 286 282 276 266 242 222 225 209 213 216 215 205 201 202 204 200 194 192 192 192 190 189 173 157 145 131 83 100 91 79 148 159 195 189 187 186 196 196 182 188 185 182
268 260 107 138 200 205 218 252 225 215 261 243 219 203 237 249 272 269 286 349 1 315 341 34 330 303 200 196 224 273 2 294 264 242 255 253 250 251 264 272 280 255 253 259 270 277 284 273 273 267 265 232 234 231 224 212 211 206 205 198 195 192 189 189 186 180 171 177 173 164 164 171 183 190 181 196 199 178 187 202 191 188 194 187 187 182
230 243 175 198 173 198 199 222 233 185 245 273 262 205 232 244 246 264 279 9 291 236 302 43 114 292 161 193 231 250 238 252 271 233 242 248 258 290 243 262 284 274 275 262 258 273 278 284 325 276 248 236 238 238 223 214 213 210 206 197 193 192 190 186 182 176 175 178 183 187 190 190 188 193 207 202 182 186 198 193 190 196 188 192 186 186
175 301 196 221 175 165 179 253 241 181 227 263 234 170 198 205 214 230 214 192 250 268 277 187 166 240 299 287 202 209 213 239 250 258 265 272 289 287 289 267 269 277 275 276 274 268 267 315 300 280 250 236 234 234 209 214 209 205 201 191 192 191 189 186 178 180 183 184 186 189 194 195 200 205 202 185 189 189 187 190 192 185 192 191 192 186
164 187 172 160 146 150 199 223 87 156 176 230 259 156 186 201 202 147 162 195 223 21 298 214 109 303 257 253 55 140 194 254 257 259 262 281 294 284 280 297 301 281 271 269 276 278 327 323 287 261 257 249 249 239 220 217 210 203 194 189 187 192 188 185 182 183 189 190 187 190 191 198 209 203 188 170 177 187 183 188 182 186 186 189 195 192
303 187 207 171 150 213 222 206 169 163 205 274 94 66 64 73 67 134 123 130 324 39 274 175 187 214 278 294 139 351 170 247 250 253 267 270 263 277 288 300 288 285 292 291 283 302 341 286 271 265 275 285 258 255 247 240 208 198 185 188 186 194 188 183 184 186 189 191 186 192 199 202 198 185 164 159 176 182 175 190 186 185 181 188 190 195
234 343 164 124 199 218 164 68 166 201 166 103 93 61 6 34 32 27 68 94 54 249 259 169 201 172 279 282 176 131 207 210 312 309 275 280 280 273 272 267 287 287 288 283 283 343 359 301 284 301 290 274 293 274 254 234 202 193 194 190 192 194 184 183 187 186 190 191 191 198 199 199 193 185 172 168 183 177 175 192 190 187 189 181 192 188
258 151 171 250 80 95 104 97 36 135 165 158 241 136 27 319 16 30 340 47 182 267 257 181 183 189 214 298 310 233 256 223 216 260 284 299 276 280 301 293 281 296 297 290 336 328 328 332 325 331 304 295 289 316 290 272 238 199 195 193 196 193 190 186 187 190 194 194 199 202 198 198 196 184 186 190 188 185 187 189 186 183 176 190 188 188
281 219 231 264 217 164 166 133 303 35 78 124 132 21 235 273 23 326 35 299 188 220 253 194 152 350 244 247 264 296 297 270 213 228 255 261 283 301 299 305 308 291 290 311 327 330 332 323 323 326 313 308 305 307 301 253 220 208 197 194 196 204 191 189 187 194 197 197 203 202 200 202 196 196 196 198 195 190 190 186 181 177 190 181 184 197
279 281 99 234 50 212 139 185 271 305 199 136 163 162 116 263 237 251 266 255 304 295 259 166 221 249 274 294 228 245 253 278 280 214 229 238 257 278 288 303 296 299 309 311 312 320 327 321 319 316 305 305 308 292 270 244 208 201 196 196 206 215 200 192 192 196 199 206 207 203 202 201 196 201 200 200 198 191 192 187 189 187 188 187 196 192
308 294 261 151 232 190 176 199 202 183 154 197 114 159 188 162 163 228 194 240 241 233 5 281 111 229 131 233 229 224 269 282 267 253 240 248 255 266 278 280 285 287 292 309 309 318 324 324 308 302 302 305 291 274 260 247 226 207 208 198 204 205 210 212 207 199 206 208 205 205 206 203 202 204 201 203 198 189 189 192 192 194 192 196 199 196
212 243 265 288 239 173 184 271 85 99 63 210 160 75 76 229 135 235 193 238 282 309 336 226 211 207 230 282 285 249 257 265 264 267 270 276 267 258 276 272 272 284 296 300 300 311 314 310 304 300 304 303 291 268 252 235 222 213 215 207 210 207 195 200 210 216 213 213 210 209 208 210 207 209 208 207 202 201 194 192 193 195 196 200 192 191
65 274 271 323 118 160 263 344 284 124 228 259 96 200 213 167 148 294 315 244 112 20 251 206 279 271 301 287 279 295 288 277 301 276 285 267 262 268 267 271 280 295 297 287 292 292 292 302 303 290 291 301 294 281 252 241 220 214 208 207 215 217 215 208 208 213 216 219 215 216 213 210 211 210 210 209 209 207 202 201 206 202 203 193 189 189
229 277 353 81 293 7 185 178 293 17 149 100 173 242 175 157 121 162 230 333 252 242 256 226 262 277 326 284 341 355 297 290 294 303 272 288 299 293 266 274 287 289 285 274 264 241 249 253 271 296 298 287 289 279 277 259 234 223 213 209 210 211 215 219 212 209 206 209 215 218 221 219 215 214 216 213 208 198 193 201 203 204 193 203 196 181
115 324 245 175 177 288 7 38 307 129 50 172 194 274 127 246 265 279 89 251 241 243 255 223 252 260 248 270 292 289 285 284 285 256 288 289 288 266 281 297 305 292 310 337 340 335 309 266 319 324 324 319 302 288 285 291 277 256 238 223 214 216 215 210 207 221 234 227 228 227 226 227 231 228 222 217 206 187 197 201 202 203 207 176 185 188
23 272 288 264 111 353 360 47 272 333 345 7 10 311 197 97 223 202 191 179 293 269 264 254 224 252 210 256 268 281 283 289 289 284 258 246 251 265 281 307 304 327 335 336 338 331 333 25 2 351 344 336 327 323 313 307 301 275 264 251 245 253 228 209 208 197 214 222 228 227 224 230 231 239 240 226 209 201 203 204 199 200 197 202 170 184
305 279 257 300 161 33 283 175 238 245 245 254 213 242 238 206 219 63 333 256 237 262 252 275 257 223 226 238 262 268 275 281 288 293 258 245 268 298 269 278 327 337 335 320 326 341 349 3 2 359 358 347 335 331 328 322 310 303 304 281 274 247 234 233 233 220 225 207 218 221 224 216 209 227 227 239 231 226 218 205 201 201 200 161 194 181
355 143 260 276 290 245 250 234 232 229 239 243 221 222 212 214 256 255 257 171 225 227 249 248 257 236 223 210 245 260 268 277 286 295 288 274 298 301 335 329 300 298 320 356 357 354 350 360 18 19 16 13 7 351 343 328 325 312 301 297 296 284 259 245 244 238 254 249 241 232 236 234 224 201 195 215 223 226 221 214 209 201 177 200 196 188
205 165 207 257 243 256 258 259 238 234 238 235 196 233 198 213 166 217 259 242 251 236 258 251 272 258 164 213 227 252 264 271 286 314 309 303 276 276 282 306 342 2 12 7 5 1 358 1 6 23 40 29 19 9 355 345 335 315 306 306 294 276 260 251 259 263 250 241 238 236 239 243 238 231 212 210 214 222 222 220 211 186 198 200 193 195
175 180 221 253 261 264 269 274 289 159 203 306 287 235 208 229 220 242 246 274 273 284 279 276 258 285 140 205 219 240 264 287 296 318 327 315 353 354 357 14 16 13 8 6 7 8 3 360 3 11 8 10 15 12 6 3 5 0 349 324 315 308 296 281 255 251 246 243 243 239 234 231 230 233 234 229 226 226 224 219 212 195 201 199 188 196
349 281 242 272 282 287 289 329 321 27 100 212 234 233 230 244 255 258 277 74 270 247 262 266 267 275 279 297 312 302 301 296 308 344 15 22 21 23 21 20 17 13 11 9 8 3 6 13 11 5 5 6 0 4 10 12 9 6 2 2 352 327 312 304 286 262 251 244 246 235 227 227 214 222 228 233 235 237 231 224 219 207 206 195 201 201
248 250 281 267 261 263 271 269 273 279 246 243 233 263 256 243 235 265 263 243 250 242 235 252 266 262 261 298 296 293 320 324 343 28 34 42 27 17 12 9 11 14 11 8 7 12 12 5 5 7 5 4 6 2 359 0 3 3 2 359 357 352 330 292 278 264 258 248 243 236 224 224 220 224 223 225 228 231 228 227 225 220 219 209 212 202
241 330 220 241 249 256 262 275 291 317 306 280 279 236 264 251 252 237 252 252 250 256 244 243 258 269 264 264 265 301 351 351 16 16 27 22 16 15 12 12 12 11 11 9 8 6 10 12 9 5 2 1 1 1 359 358 358 358 356 356 356 352 346 335 311 272 255 252 247 249 239 233 231 233 234 234 235 234 226 222 218 212 212 203 207 201
53 266 238 266 257 263 272 276 285 292 286 292 290 284 283 284 287 283 258 260 282 287 263 258 266 275 281 292 316 7 356 6 42 35 28 23 18 9 2 4 10 11 7 8 12 12 10 4 4 3 0 358 357 355 356 356 356 355 354 353 350 349 349 348 345 338 314 294 287 273 261 248 244 243 243 244 244 239 236 232 225 222 219 201 207 206
163 256 279 267 269 277 305 310 306 300 285 292 285 284 282 283 279 271 268 270 274 259 276 290 294 289 293 323 20 26 3 13 28 34 31 18 14 11 11 12 10 8 2 6 4 6 6 4 359 356 357 355 354 355 354 353 353 353 352 352 349 349 353 348 351 349 345 330 302 282 272 269 259 251 250 244 240 237 235 232 230 225 215 209 213 211
264 249 243 239 286 302 284 282 288 289 292 291 289 286 283 280 277 274 275 275 272 272 275 277 275 273 290 48 23 20 352 12 36 23 24 29 18 13 12 14 12 4 3 1 357 355 357 355 354 354 352 354 354 353 352 352 351 350 349 347 347 349 349 352 355 355 352 346 333 320 303 280 269 264 258 251 243 241 235 230 226 220 220 218 213 209
235 271 316 312 301 291 291 282 273 270 275 277 280 279 274 269 270 272 282 275 271 269 269 267 270 278 85 20 13 338 2 340 30 32 29 21 16 13 14 7 3 357 355 352 351 350 346 347 349 353 354 352 352 350 348 346 343 343 345 346 346 348 347 349 353 356 354 347 338 329 324 320 309 291 271 255 249 245 235 229 222 219 220 217 209 208
300 292 310 293 293 282 281 283 287 295 293 285 284 280 273 269 272 270 262 261 261 271 281 294 283 278 50 2 310 343 348 7 5 12 28 12 11 16 11 4 349 348 344 344 341 343 347 347 349 349 348 346 345 346 346 343 343 344 345 343 344 345 345 349 351 354 353 347 339 334 330 325 317 312 300 289 272 262 249 241 227 223 218 215 212 209
227 272 284 291 280 253 271 280 299 301 300 282 263 260 265 269 255 259 258 275 326 30 290 267 288 56 288 335 353 352 8 348 13 331 8 353 5 7 3 352 334 323 335 335 340 341 342 345 344 341 339 342 342 341 338 337 339 343 339 340 337 339 348 348 348 349 351 347 344 338 331 326 322 313 306 297 290 284 272 250 238 231 219 218 216 203
222 229 257 249 268 291 293 292 304 292 266 260 284 173 236 274 327 318 310 46 355 36 92 80 129 5 321 323 359 327 351 341 311 299 267 326 328 348 354 339 325 303 304 315 323 335 331 334 337 337 335 330 331 331 329 334 335 332 330 329 332 339 344 343 340 345 345 344 344 342 336 329 324 316 309 304 300 290 271 254 242 235 228 221 201 206
252 252 255 235 262 270 284 304 297 259 262 327 70 332 77 81 79 109 90 85 97 102 108 99 180 288 285 282 269 293 266 286 290 279 236 249 349 352 340 321 324 325 320 323 329 329 333 328 330 332 333 336 333 328 328 330 334 330 330 334 334 337 338 336 334 341 345 343 342 343 341 336 328 319 311 306 297 291 273 253 252 244 228 211 210 209
242 248 252 238 222 297 245 217 246 253 105 162 214 132 356 75 109 91 53 102 321 128 151 23 237 198 254 269 276 266 289 272 278 269 230 230 68 348 310 309 308 308 310 312 317 319 321 322 321 322 321 324 327 327 329 328 331 331 329 329 327 330 333 331 336 341 343 342 342 342 339 336 329 323 317 307 296 287 274 264 250 240 231 227 234 234
234 250 230 271 222 246 227 234 249 313 309 292 275 52 81 25 18 57 275 253 158 270 212 234 255 222 232 246 260 271 277 294 286 287 154 38 292 286 251 269 276 280 283 290 295 298 302 300 309 308 310 316 320 321 324 330 330 329 326 330 333 335 336 339 342 344 342 338 337 336 334 332 326 320 317 310 297 273 260 252 245 241 213 213 219 220
209 214 227 240 250 229 257 275 279 283 271 313 170 255 243 225 217 255 155 275 134 298 241 205 234 229 218 243 251 259 291 301 320 297 185 224 246 263 253 245 256 254 263 274 280 278 286 291 294 300 302 308 311 312 320 328 329 329 328 327 329 333 335 342 342 340 338 334 333 330 328 327 322 315 311 308 300 285 274 257 252 242 211 216 220 218
212 215 224 232 268 272 273 266 262 271 272 126 219 207 249 214 192 233 155 250 163 295 262 195 223 231 227 233 245 240 339 291 286 285 238 201 252 248 255 257 253 258 258 263 271 280 281 277 284 288 294 298 304 310 321 321 324 326 322 322 324 325 329 335 338 338 335 331 328 326 325 323 321 317 314 311 306 297 286 273 255 246 202 230 235 236
66 201 193 237 239 232 264 256 260 242 246 245 205 255 216 224 165 143 286 277 139 248 225 195 214 233 234 230 226 203 219 260 276 282 265 258 249 254 254 268 270 263 263 269 270 263 267 273 288 293 295 297 294 303 315 316 318 315 311 312 315 319 322 328 331 328 324 325 325 322 323 322 322 317 313 306 302 301 280 268 259 239 220 232 225 234
293 290 206 222 235 249 249 261 267 263 265 169 198 229 248 208 128 278 265 297 320 196 213 191 217 232 230 234 202 207 220 226 244 258 274 284 286 276 261 250 258 261 270 276 277 276 274 277 272 276 281 285 292 302 307 310 311 309 308 306 308 310 314 319 322 322 323 323 323 322 320 319 317 314 308 296 290 290 288 261 244 231 220 226 231 220
284 188 298 218 234 237 239 256 251 271 241 179 248 178 254 36 279 258 257 148 225 256 215 194 218 234 236 234 231 223 238 241 246 257 273 276 264 258 267 265 266 271 266 269 277 279 276 283 284 281 283 283 293 301 306 309 308 302 304 305 301 303 313 318 316 319 322 322 319 318 316 317 314 309 302 299 299 297 289 284 267 237 226 225 216 227
232 255 231 235 231 269 204 252 271 261 311 108 237 333 208 192 230 284 307 311 264 244 227 231 216 247 240 253 242 244 249 256 253 253 253 262 270 267 267 270 266 263 273 277 273 265 275 287 281 276 281 289 294 300 298 303 301 300 301 296 297 310 314 315 314 317 318 315 314 313 312 310 310 308 308 301 299 294 290 294 285 263 224 229 230 236
225 269 258 263 194 263 235 243 227 220 203 226 116 255 225 231 248 296 305 300 288 230 230 239 242 245 250 247 253 255 251 252 261 261 261 265 263 264 264 264 269 278 276 270 263 274 284 280 281 284 281 285 293 296 295 298 295 294 295 291 305 313 313 313 315 316 312 309 307 306 305 305 303 298 290 288 286 277 275 274 264 261 231 223 224 235
206 213 234 256 238 240 212 234 250 273 293 245 186 235 248 275 287 286 271 263 278 264 216 225 259 264 253 249 250 250 259 251 248 248 252 256 261 259 260 261 266 274 278 280 282 283 286 279 284 289 292 291 288 287 291 292 291 293 290 293 311 311 311 311 315 315 310 308 306 303 301 300 298 292 278 270 260 263 261 255 234 246 232 213 225 226
302 285 182 345 262 263 265 268 273 301 291 284 277 280 283 282 284 280 258 264 242 253 258 263 271 268 264 251 249 254 249 254 255 255 253 259 266 271 274 278 279 277 280 285 285 286 277 278 281 285 287 290 284 282 284 281 277 282 285 299 305 303 304 306 309 307 304 302 301 301 302 302 298 292 278 263 247 248 249 248 232 227 226 207 223 221
244 254 254 246 267 278 266 254 263 265 266 267 268 270 273 269 264 276 259 221 249 262 272 270 261 260 257 259 244 248 253 249 253 260 272 293 287 285 287 288 286 284 283 283 282 293 297 287 286 285 285 286 286 283 280 282 278 274 286 292 297 301 303 304 304 300 297 295 296 299 298 296 295 295 294 275 258 247 249 239 233 228 227 214 216 221
274 216 226 233 250 242 262 265 262 248 248 256 263 273 277 278 278 272 245 244 255 266 270 274 282 274 266 261 257 258 263 279 285 294 314 304 296 294 292 290 290 293 285 276 281 287 285 282 279 282 284 283 285 290 290 284 284 284 285 288 296 302 305 305 303 303 301 299 298 292 292 291 291 293 289 285 263 257 252 239 229 229 226 217 213 216
235 60 225 162 231 253 260 263 266 269 269 268 266 260 259 267 278 284 282 284 290 295 295 300 296 284 323 319 17 1 322 301 314 317 303 298 294 291 289 290 290 288 289 292 291 288 277 282 282 277 280 279 283 290 292 288 286 286 284 286 299 318 311 302 301 300 295 294 296 293 289 287 287 287 288 284 276 253 245 246 237 232 241 229 220 216
263 254 261 261 265 263 261 265 263 275 278 272 266 266 270 278 270 275 298 317 350 353 351 336 329 360 17 13 9 358 325 307 307 312 299 289 285 287 292 294 295 293 290 286 290 288 286 278 276 281 282 281 286 289 287 289 288 286 284 289 308 318 306 303 300 296 288 285 282 283 286 289 289 288 286 284 280 278 268 239 237 238 233 248 222 226
225 245 244 244 250 263 264 262 249 248 265 273 280 295 27 31 14 11 10 1 3 15 5 1 345 336 338 342 354 329 309 299 299 310 302 297 292 292 291 294 295 292 289 295 299 296 293 289 284 282 281 283 290 286 286 286 284 284 285 297 316 311 298 295 290 284 282 282 278 278 283 285 284 283 281 279 277 274 273 280 254 240 244 245 239 228